PTGLD SSTB-SSPI

Flight info

Callsign PTGLD
Flight time N/A
Altitude 6500
Route DCT 2522S05128W 2445S05145W 2402S05222W DCT
Aircraft PA24/M-SDFGIRY/S

Departure

Time N/A
Airport Três Barras Airport (SSTB)

Arrival

Time 2026-04-11 19:59
Airport Paranavaí Airport (SSPI)
Time Latitude Longitude Altitude Speed Heading
2026-04-11 19:24 -24.31106 -52.15991 6562 ft 164 kts 327°
2026-04-11 19:25 -24.30199 -52.16751 6564 ft 165 kts 323°
2026-04-11 19:25 -24.29312 -52.17527 6562 ft 165 kts 323°
2026-04-11 19:25 -24.28425 -52.18325 6564 ft 165 kts 324°
2026-04-11 19:25 -24.27509 -52.19083 6558 ft 164 kts 327°
2026-04-11 19:26 -24.26597 -52.19833 6562 ft 164 kts 321°
2026-04-11 19:26 -24.25723 -52.20637 6562 ft 164 kts 323°
2026-04-11 19:26 -24.24815 -52.21384 6565 ft 163 kts 324°
2026-04-11 19:26 -24.23911 -52.22144 6557 ft 163 kts 323°
2026-04-11 19:27 -24.23011 -52.22901 6562 ft 163 kts 321°
2026-04-11 19:27 -24.22142 -52.23709 6561 ft 163 kts 324°
2026-04-11 19:27 -24.21261 -52.24486 6560 ft 164 kts 326°
2026-04-11 19:27 -24.20333 -52.25200 6564 ft 163 kts 328°
2026-04-11 19:28 -24.19451 -52.25971 6561 ft 162 kts 321°
2026-04-11 19:28 -24.18571 -52.26746 6560 ft 163 kts 325°
2026-04-11 19:28 -24.17669 -52.27496 6563 ft 163 kts 322°
2026-04-11 19:28 -24.16780 -52.28273 6561 ft 163 kts 326°
2026-04-11 19:29 -24.15874 -52.29000 6562 ft 163 kts 326°
2026-04-11 19:29 -24.14980 -52.29763 6564 ft 163 kts 326°
2026-04-11 19:29 -24.14070 -52.30504 6562 ft 162 kts 324°
2026-04-11 19:29 -24.13157 -52.31227 6560 ft 162 kts 323°
2026-04-11 19:30 -24.12270 -52.31997 6558 ft 163 kts 323°
2026-04-11 19:30 -24.11374 -52.32758 6558 ft 163 kts 325°
2026-04-11 19:30 -24.10476 -52.33517 6560 ft 162 kts 322°
2026-04-11 19:30 -24.09567 -52.34254 6560 ft 163 kts 326°
2026-04-11 19:31 -24.08656 -52.34993 6560 ft 163 kts 324°
2026-04-11 19:31 -24.07767 -52.35761 6562 ft 162 kts 322°
2026-04-11 19:31 -24.06863 -52.36500 6559 ft 162 kts 329°
2026-04-11 19:31 -24.05832 -52.36996 6556 ft 162 kts 344°
2026-04-11 19:32 -24.04730 -52.37178 6563 ft 162 kts 352°
2026-04-11 19:32 -24.03604 -52.37316 6555 ft 162 kts 353°
2026-04-11 19:32 -24.02483 -52.37459 6561 ft 161 kts 355°
2026-04-11 19:32 -24.01377 -52.37543 6545 ft 159 kts 353°
2026-04-11 19:33 -24.00275 -52.37750 6429 ft 162 kts 349°
2026-04-11 19:33 -23.99165 -52.37958 6347 ft 162 kts 351°
2026-04-11 19:33 -23.98037 -52.38132 6205 ft 166 kts 354°
2026-04-11 19:33 -23.96901 -52.38292 6091 ft 164 kts 351°
2026-04-11 19:34 -23.95765 -52.38471 5992 ft 164 kts 355°
2026-04-11 19:34 -23.94641 -52.38656 5929 ft 163 kts 354°
2026-04-11 19:34 -23.93527 -52.38828 5850 ft 164 kts 353°
2026-04-11 19:34 -23.92403 -52.39054 5772 ft 164 kts 353°
2026-04-11 19:35 -23.91277 -52.39247 5712 ft 164 kts 350°
2026-04-11 19:35 -23.90153 -52.39481 5645 ft 166 kts 354°
2026-04-11 19:35 -23.89019 -52.39692 5570 ft 164 kts 349°
2026-04-11 19:35 -23.87898 -52.39914 5554 ft 163 kts 355°
2026-04-11 19:36 -23.86783 -52.40037 5554 ft 159 kts 359°
2026-04-11 19:36 -23.85677 -52.40124 5555 ft 161 kts 354°
2026-04-11 19:36 -23.84562 -52.40292 5556 ft 162 kts 358°
2026-04-11 19:37 -23.82340 -52.40677 5554 ft 162 kts 357°
2026-04-11 19:37 -23.81225 -52.40828 5556 ft 162 kts 356°
2026-04-11 19:37 -23.80109 -52.40990 5552 ft 161 kts 354°
2026-04-11 19:37 -23.79006 -52.41157 5554 ft 162 kts 353°
2026-04-11 19:38 -23.77891 -52.41322 5553 ft 162 kts 357°
2026-04-11 19:38 -23.76773 -52.41482 5550 ft 163 kts 354°
2026-04-11 19:38 -23.75643 -52.41661 5555 ft 164 kts 358°
2026-04-11 19:38 -23.74510 -52.41808 5547 ft 165 kts 351°
2026-04-11 19:39 -23.73381 -52.42057 5548 ft 167 kts 351°
2026-04-11 19:39 -23.72235 -52.42244 5548 ft 166 kts 357°
2026-04-11 19:39 -23.71100 -52.42440 5547 ft 165 kts 352°
2026-04-11 19:39 -23.69961 -52.42614 5544 ft 165 kts 354°
2026-04-11 19:40 -23.68821 -52.42731 5546 ft 164 kts 356°
2026-04-11 19:40 -23.67697 -52.42898 5546 ft 163 kts 351°
2026-04-11 19:40 -23.66575 -52.43103 5549 ft 164 kts 355°
2026-04-11 19:40 -23.65455 -52.43320 5549 ft 163 kts 352°
2026-04-11 19:41 -23.64346 -52.43504 5545 ft 163 kts 354°
2026-04-11 19:41 -23.63222 -52.43686 5549 ft 163 kts 354°
2026-04-11 19:41 -23.62099 -52.43848 5546 ft 163 kts 354°
2026-04-11 19:41 -23.60980 -52.44050 5540 ft 164 kts 352°
2026-04-11 19:42 -23.59856 -52.44259 5549 ft 164 kts 352°
2026-04-11 19:42 -23.58740 -52.44507 5552 ft 164 kts 352°
2026-04-11 19:42 -23.57603 -52.44656 5546 ft 165 kts 355°
2026-04-11 19:42 -23.56461 -52.44821 5543 ft 166 kts 354°
2026-04-11 19:43 -23.55320 -52.44971 5545 ft 165 kts 358°
2026-04-11 19:43 -23.54185 -52.45151 5543 ft 164 kts 351°
2026-04-11 19:43 -23.53059 -52.45383 5542 ft 165 kts 352°
2026-04-11 19:43 -23.51913 -52.45552 5540 ft 166 kts 356°
2026-04-11 19:44 -23.50773 -52.45716 5543 ft 165 kts 354°
2026-04-11 19:44 -23.49638 -52.45893 5543 ft 164 kts 358°
2026-04-11 19:44 -23.48496 -52.45925 5540 ft 164 kts 360°
2026-04-11 19:44 -23.47351 -52.45965 5541 ft 165 kts
2026-04-11 19:45 -23.46223 -52.46014 5543 ft 164 kts
2026-04-11 19:45 -23.45091 -52.46024 5514 ft 161 kts 359°
2026-04-11 19:45 -23.43972 -52.46091 5390 ft 163 kts 356°
2026-04-11 19:45 -23.42824 -52.46184 5244 ft 165 kts 359°
2026-04-11 19:46 -23.41689 -52.46177 5150 ft 161 kts
2026-04-11 19:46 -23.40560 -52.46215 4977 ft 163 kts
2026-04-11 19:46 -23.39441 -52.46275 4869 ft 159 kts 359°
2026-04-11 19:46 -23.38340 -52.46300 4762 ft 158 kts
2026-04-11 19:47 -23.37228 -52.46341 4625 ft 160 kts 360°
2026-04-11 19:47 -23.36120 -52.46405 4508 ft 159 kts
2026-04-11 19:47 -23.35012 -52.46472 4385 ft 159 kts
2026-04-11 19:47 -23.33921 -52.46494 4257 ft 158 kts
2026-04-11 19:48 -23.32826 -52.46519 4165 ft 157 kts
2026-04-11 19:48 -23.31730 -52.46586 4028 ft 158 kts 358°
2026-04-11 19:48 -23.30644 -52.46622 3962 ft 155 kts
2026-04-11 19:48 -23.29563 -52.46652 3855 ft 155 kts
2026-04-11 19:49 -23.28488 -52.46663 3819 ft 155 kts
2026-04-11 19:49 -23.27411 -52.46863 3724 ft 158 kts 348°
2026-04-11 19:49 -23.26356 -52.47184 3680 ft 155 kts 347°
2026-04-11 19:49 -23.25309 -52.47468 3613 ft 156 kts 349°
2026-04-11 19:50 -23.24248 -52.47721 3532 ft 155 kts 348°
2026-04-11 19:50 -23.23203 -52.48030 3498 ft 154 kts 348°
2026-04-11 19:50 -23.22167 -52.48327 3511 ft 155 kts 351°
2026-04-11 19:50 -23.21117 -52.48595 3497 ft 155 kts 349°
2026-04-11 19:51 -23.20065 -52.48854 3462 ft 154 kts 354°
2026-04-11 19:51 -23.19036 -52.49115 3383 ft 154 kts 348°
2026-04-11 19:51 -23.17994 -52.49400 3278 ft 155 kts 347°
2026-04-11 19:51 -23.16945 -52.49641 3246 ft 152 kts 352°
2026-04-11 19:52 -23.15916 -52.49894 3190 ft 150 kts 351°
2026-04-11 19:52 -23.14928 -52.50133 3089 ft 144 kts 351°
2026-04-11 19:52 -23.13936 -52.50301 2938 ft 147 kts
2026-04-11 19:52 -23.12915 -52.50298 2820 ft 142 kts
2026-04-11 19:53 -23.11952 -52.50247 2724 ft 137 kts
2026-04-11 19:53 -23.10989 -52.50193 2583 ft 139 kts
2026-04-11 19:53 -23.10040 -52.50175 2552 ft 132 kts
2026-04-11 19:53 -23.09157 -52.50049 2531 ft 127 kts 32°
2026-04-11 19:54 -23.09040 -52.49267 2519 ft 116 kts 116°
2026-04-11 19:54 -23.09450 -52.48538 2466 ft 111 kts 120°
2026-04-11 19:54 -23.09817 -52.47847 2468 ft 102 kts 116°
2026-04-11 19:54 -23.10093 -52.47174 2495 ft 94 kts 105°
2026-04-11 19:55 -23.10109 -52.46508 2523 ft 84 kts 76°
2026-04-11 19:55 -23.09730 -52.46033 2483 ft 92 kts 23°
2026-04-11 19:55 -23.09075 -52.46091 2463 ft 104 kts 337°
2026-04-11 19:55 -23.08540 -52.46666 2409 ft 116 kts 304°
2026-04-11 19:56 -23.08163 -52.47463 2400 ft 124 kts 296°
2026-04-11 19:56 -23.07849 -52.48330 2417 ft 122 kts 292°
2026-04-11 19:56 -23.07570 -52.49173 2468 ft 115 kts 293°
2026-04-11 19:56 -23.07283 -52.49997 2440 ft 119 kts 291°
2026-04-11 19:57 -23.06981 -52.50856 2336 ft 125 kts 291°
2026-04-11 19:57 -23.06705 -52.51740 2277 ft 117 kts 287°
2026-04-11 19:57 -23.06721 -52.52545 2210 ft 106 kts 248°
2026-04-11 19:57 -23.07206 -52.53092 2170 ft 100 kts 201°
2026-04-11 19:58 -23.07844 -52.53028 2071 ft 96 kts 136°
2026-04-11 19:58 -23.08025 -52.52411 2070 ft 81 kts 94°
2026-04-11 19:58 -23.08129 -52.51839 2027 ft 74 kts 100°
2026-04-11 19:58 -23.08280 -52.51263 1913 ft 84 kts 105°
2026-04-11 19:59 -23.08466 -52.50644 1763 ft 88 kts 107°
2026-04-11 19:59 -23.08653 -52.50017 1628 ft 85 kts 107°
2026-04-11 19:59 -23.08821 -52.49451 1539 ft 71 kts 107°
2026-04-11 19:59 -23.08907 -52.49171 1540 ft 48 kts 104°
2026-04-11 20:00 -23.08965 -52.48960 1548 ft 11 kts 109°
2026-04-11 20:00 -23.09001 -52.48871 1551 ft 12 kts 150°
2026-04-11 20:00 -23.09085 -52.48900 1552 ft 11 kts 223°
2026-04-11 20:00 -23.09127 -52.48935 1552 ft 8 kts 197°
2026-04-11 20:01 -23.09148 -52.48942 1552 ft 2 kts 235°
2026-04-11 20:01 -23.09145 -52.48948 1551 ft 0 kts
2026-04-11 20:01 -23.09144 -52.48948 1551 ft 0 kts 13°